Location: De Har
(53.3413°N, 6.6858°E)
Time: 16:39:01
(UTC+00:00)

DELTA 2 DEB (DPAF) - Pass Details

Date: 22 April 2026
Orbit: 478 x 487 km, 98.3° (Epoch: 9 May)

Event Time Altitude Azimuth Distance (km) Brightness Sun altitude
Rises 00:09:05 0° 17° (NNE) 2,558 8.6 -24.0°
Reaches altitude 10° 00:11:10 10° 20° (NNE) 1,671 7.3 -24.0°
Enters shadow 00:14:03 52° 44° (NE) 606 4.2 -23.9°
